sat.trackr.live / text

‹ back to catalog

STARLINK-30865

NORAD 58226 · 2023-170W

PAYLOAD ACTIVE UNKNOWN

§ Identity

Operator
Country
US
Launch date
2023-11-03
Launch site
AFETR
Launch vehicle
Mass (kg)
RCS (m²)

Purposes: comms

External: N2YO · Heavens-Above · Gunter

§ Orbital elements

Epoch: 2026-05-25T04:57:44.216064Z

Period
94.27 min
Inclination
43.0032°
Eccentricity
0.0000672
Mean motion
15.27552768 rev/d
Perigee alt
482.7 km
Apogee alt
483.6 km
Semi-major
6,861.3 km
B*
-3.8585e-5
RAAN
110.8817°
Arg perigee
238.6218°
Mean anomaly
121.4568°
Rev number
14,213

§ Raw data

STARLINK-308651 58226U 23170W   26145.20676176 -.00001322  00000+0 -38585-4 0  99912 58226  43.0032 110.8817 0000672 238.6218 121.4568 15.27552768142134

JSON: /api/v1/satellites/58226 · /tle

For live sub-satellite position, see the globe view (requires WebGL).

§ Visibility from observer

Set your observer location to see the next 7 days of passes ≥ 10°. The values pass through the URL so the page stays shareable.

No JS? Fill the form by hand. The geolocation button needs JavaScript.